CAPE
351 546 1027 569 351 208 196 451 517 284 404 399 875 803 740 398 197 65 2 0 0 0 0 0 0 0 12 59 126 143 97 93 69 46 4 126 444 121 76 64 123 116 123
425 633 1051 894 524 361 342 324 515 874 872 980 774 495 194 90 4 0 0 0 0 0 0 0 0 0 0 0 0 0 0 0 0 0 0 0 210 363 201 194 190 93 283
616 706 717 1045 985 907 856 627 639 828 1020 710 354 152 46 0 0 0 0 0 0 0 0 0 0 0 0 0 0 0 0 0 0 0 0 0 117 352 321 344 229 130 260
721 843 723 1297 1446 1452 1321 1061 1062 770 507 352 120 3 0 0 0 0 0 1 1 1 2 1 0 0 0 0 0 0 0 0 0 0 0 14 68 174 257 382 364 308 218
1044 786 827 1539 1911 1839 1530 1265 686 411 179 11 1 0 1 1 1 2 2 0 0 2 2 0 0 0 0 4 1 0 0 0 0 0 5 13 22 77 242 329 300 383 342
1012 772 1472 1910 1790 1516 1226 749 347 102 1 0 0 0 1 1 3 2 0 0 1 1 0 0 0 0 0 0 0 8 0 0 0 0 0 27 22 186 183 215 195 172 147
899 964 1516 1842 1586 1258 705 315 93 0 0 1 0 2 2 5 2 2 0 0 0 0 0 0 0 0 0 0 0 16 6 0 0 0 0 8 45 179 146 142 69 55 77
914 1238 1378 1291 1181 950 431 132 2 0 0 1 3 3 3 1 0 0 0 0 0 0 0 0 0 0 0 0 3 1 0 0 0 0 0 0 82 43 75 66 57 60 62
1002 1173 1087 826 645 434 207 40 2 1 2 3 2 0 0 0 0 0 0 0 0 0 0 0 0 0 0 0 0 0 0 0 0 0 0 0 74 76 75 49 51 45 48
923 848 728 388 110 1 0 0 4 9 9 10 2 0 0 0 0 0 0 0 0 0 0 0 0 0 0 0 0 0 0 0 0 0 0 0 18 47 48 43 26 23 26
673 612 263 10 0 0 0 0 3 4 3 0 0 0 0 0 0 0 0 0 0 0 0 0 0 0 0 0 0 0 0 0 0 0 18 70 59 51 31 38 27 16 9
506 172 0 0 0 0 0 0 0 0 0 0 0 0 0 0 0 0 0 0 0 0 0 0 0 0 0 0 0 0 0 0 0 0 1 33 24 20 16 5 11 11 13
303 8 0 0 0 0 0 0 0 0 0 0 0 0 0 0 0 0 0 0 0 0 0 0 0 0 0 0 0 0 0 0 0 0 0 1 3 7 3 0 5 7 9
237 0 0 0 0 0 0 0 0 0 0 0 0 0 0 0 0 0 0 0 0 0 0 0 0 0 0 0 0 0 0 0 0 0 0 0 0 0 1 3 4 4 8
156 0 0 0 0 0 0 0 0 0 0 0 0 0 0 0 0 0 0 0 0 0 0 0 0 0 0 0 0 0 0 0 0 0 0 0 0 0 0 1 4 7 7
0 0 0 0 0 0 0 0 0 0 0 0 0 0 0 0 0 0 0 0 0 0 0 0 0 0 0 0 0 0 0 0 0 0 0 0 0 0 0 0 0 1 3
13 0 0 0 0 0 0 0 0 0 0 0 0 0 0 0 0 0 0 0 0 0 0 0 0 0 0 0 0 0 0 0 0 0 0 0 0 0 0 0 0 0 0
0 16 0 0 0 0 0 0 0 0 0 0 0 0 0 0 0 0 0 0 0 0 0 0 0 0 0 0 0 0 0 0 0 0 0 0 0 0 0 0 0 0 0
1 0 4 0 0 0 0 0 0 0 0 0 0 0 0 0 0 0 0 0 0 0 0 0 0 0 0 0 0 0 0 0 0 0 0 0 0 0 0 0 0 0 0
1 2 4 1 1 0 0 0 0 0 0 0 0 0 0 0 0 0 0 0 0 0 0 0 0 0 0 0 0 0 0 0 0 0 0 0 0 0 0 0 0 0 0
1 4 8 3 4 2 1 0 0 0 0 0 0 0 0 0 0 0 0 0 0 0 0 0 0 0 0 0 0 0 0 0 0 0 0 0 0 0 0 0 0 0 0
1 2 4 8 6 4 3 0 0 0 0 0 0 0 0 0 0 0 0 0 0 0 0 0 0 0 0 0 0 0 0 0 0 0 0 0 0 0 0 0 0 0 0
1 0 1 4 2 1 0 0 0 0 0 0 0 0 0 0 0 0 0 0 0 0 0 0 0 0 0 0 0 0 0 0 0 0 0 0 0 0 0 0 0 0 0
1 1 1 1 3 1 1 0 0 0 0 0 0 0 0 0 0 0 0 0 0 0 0 0 0 0 0 0 0 0 0 0 0 0 0 0 0 0 0 0 0 0 0
1 0 1 1 0 0 0 0 0 0 0 0 0 0 0 0 0 0 0 0 0 0 0 0 0 0 0 0 0 0 0 0 0 0 0 0 0 0 0 0 0 0 0
1 1 0 1 0 0 0 0 0 0 0 0 0 0 0 0 0 0 0 0 0 0 0 0 0 0 0 0 0 0 0 0 0 0 0 0 0 0 0 0 0 0 0
CIN
-316 -213 -49 -114 -183 -268 -254 -94 -68 -163 -113 -120 -29 -38 -45 -110 -188 -298 -102 0 0 0 0 0 0 0 -91 -235 -179 -176 -216 -232 -269 -299 -103 -179 -71 -201 -225 -231 -173 -174 -156
-387 -211 -67 -49 -121 -176 -167 -158 -73 -23 -27 -29 -54 -112 -226 -317 -504 0 0 0 0 0 0 0 0 0 0 0 0 0 0 0 0 0 0 0 -172 -105 -160 -154 -143 -195 -100
-317 -212 -146 -35 -19 -27 -29 -61 -54 -35 -20 -67 -159 -272 -375 0 0 0 0 0 0 0 0 0 0 0 0 0 0 0 0 0 0 0 0 0 -232 -117 -116 -100 -139 -186 -120
-282 -182 -152 -10 0 0 0 -7 -8 -48 -106 -156 -316 -290 0 0 0 0 0 0 0 0 0 0 0 0 0 0 0 0 0 0 0 0 0 -37 -307 -196 -152 -109 -108 -121 -155
-181 -190 -126 0 0 0 0 -2 -64 -140 -279 -357 0 0 0 0 0 0 0 0 0 0 0 0 0 0 0 0 0 0 0 0 0 0 -41 -35 -25 -265 -167 -140 -147 -103 -105
-183 -176 -20 0 0 0 -4 -61 -179 -362 -554 0 0 0 0 0 0 0 0 0 0 0 0 0 0 0 0 0 0 -16 0 0 0 0 0 -31 -20 -211 -200 -197 -204 -210 -208
-192 -114 -11 0 0 -2 -63 -204 -385 -64 0 0 0 0 0 0 0 0 0 0 0 0 0 0 0 0 0 0 0 -8 -24 0 0 0 0 -26 -25 -227 -244 -260 0 0 -272
-180 -69 -16 -7 -7 -16 -147 -339 -238 0 0 0 0 0 0 0 0 0 0 0 0 0 0 0 0 0 0 0 -6 -13 0 0 0 0 0 0 -161 0 0 0 0 0 -1
-109 -51 -44 -46 -62 -137 -277 -461 -51 0 0 0 0 0 0 0 0 0 0 0 0 0 0 0 0 0 0 0 0 0 0 0 0 0 0 0 0 0 0 0 0 0 0
-74 -61 -78 -134 -346 -102 0 0 0 0 0 0 0 0 0 0 0 0 0 0 0 0 0 0 0 0 0 0 0 0 0 0 0 0 0 -1 -1 0 0 0 0 0 0
-63 -83 -192 -309 0 0 0 0 -1 -1 0 0 0 0 0 0 0 0 0 0 0 0 0 0 0 0 0 0 0 0 0 0 0 0 -15 -1 0 0 0 0 0 0 0
-95 -228 0 0 0 0 0 0 0 0 0 0 0 0 0 0 0 0 0 0 0 0 0 0 0 0 0 0 0 0 0 0 0 0 -2 -1 -1 0 0 -2 0 0 0
-167 -73 0 0 0 0 0 0 0 0 0 0 0 0 0 0 0 0 0 0 0 0 0 0 0 0 0 0 0 0 0 0 0 0 0 -1 0 0 0 0 0 0 0
-146 0 0 0 0 0 0 0 0 0 0 0 0 0 0 0 0 0 0 0 0 0 0 0 0 0 0 0 0 0 0 0 0 0 0 0 0 0 0 0 0 0 0
-154 0 0 0 0 0 0 0 0 0 0 0 0 0 0 0 0 0 0 0 0 0 0 0 0 0 0 0 0 0 0 0 0 0 0 0 0 0 0 0 0 0 0
0 0 0 0 0 0 0 0 0 0 0 0 0 0 0 0 0 0 0 0 0 0 0 0 0 0 0 0 0 0 0 0 0 0 0 0 0 0 0 0 0 0 0
0 0 0 0 0 0 0 0 0 0 0 0 0 0 0 0 0 0 0 0 0 0 0 0 0 0 0 0 0 0 0 0 0 0 0 0 0 0 0 0 0 0 0
0 0 0 0 0 0 0 0 0 0 0 0 0 0 0 0 0 0 0 0 0 0 0 0 0 0 0 0 0 0 0 0 0 0 0 0 0 0 0 0 0 0 0
0 0 0 0 0 0 0 0 0 0 0 0 0 0 0 0 0 0 0 0 0 0 0 0 0 0 0 0 0 0 0 0 0 0 0 0 0 0 0 0 0 0 0
0 0 0 0 0 0 0 0 0 0 0 0 0 0 0 0 0 0 0 0 0 0 0 0 0 0 0 0 0 0 0 0 0 0 0 0 0 0 0 0 0 0 0
0 0 0 0 0 0 0 0 0 0 0 0 0 0 0 0 0 0 0 0 0 0 0 0 0 0 0 0 0 0 0 0 0 0 0 0 0 0 0 0 0 0 0
0 0 0 0 0 0 0 0 0 0 0 0 0 0 0 0 0 0 0 0 0 0 0 0 0 0 0 0 0 0 0 0 0 0 0 0 0 0 0 0 0 0 0
0 0 0 0 0 0 0 0 0 0 0 0 0 0 0 0 0 0 0 0 0 0 0 0 0 0 0 0 0 0 0 0 0 0 0 0 0 0 0 0 0 0 0
0 0 0 0 0 0 0 0 0 0 0 0 0 0 0 0 0 0 0 0 0 0 0 0 0 0 0 0 0 0 0 0 0 0 0 0 0 0 0 0 0 0 0
0 0 0 0 0 0 0 0 0 0 0 0 0 0 0 0 0 0 0 0 0 0 0 0 0 0 0 0 0 0 0 0 0 0 0 0 0 0 0 0 0 0 0
0 0 0 0 0 0 0 0 0 0 0 0 0 0 0 0 0 0 0 0 0 0 0 0 0 0 0 0 0 0 0 0 0 0 0 0 0 0 0 0 0 0 0
Wind_Speed
14 15 21 21 21 20 19 17 16 15 15 14 15 16 16 15 13 12 12 12 11 11 11 10 10 9 9 9 10 10 9 8 9 9 8 7 9 11 12 11 8 5 9
19 19 23 21 21 21 19 18 15 14 13 17 16 13 13 11 11 11 12 12 12 11 11 11 10 10 9 9 8 7 6 7 7 6 4 4 5 11 10 9 8 7 9
20 19 19 22 20 20 19 18 16 14 16 16 15 13 12 11 11 11 11 12 12 12 11 11 11 10 9 9 7 6 5 6 6 6 2 2 3 10 9 6 6 8 6
19 18 17 22 21 21 20 18 19 17 15 16 14 14 13 12 12 11 11 12 12 12 12 11 11 10 10 10 9 9 8 8 9 8 5 4 7 13 11 10 10 9 9
18 16 17 22 20 21 21 20 18 17 16 15 15 14 13 13 12 12 12 11 12 12 12 11 11 11 11 11 10 7 7 10 11 8 6 6 4 9 12 12 11 13 14
17 15 19 22 23 21 20 20 19 18 17 16 15 14 14 13 13 12 12 11 12 12 11 11 12 11 12 11 12 12 19 17 12 7 6 6 6 11 13 14 15 16 17
16 15 16 23 22 21 20 19 19 19 17 17 15 14 14 13 13 12 12 11 11 11 11 11 11 13 13 14 14 18 18 15 8 8 6 6 6 15 18 17 16 16 17
18 16 17 21 22 21 20 20 19 19 18 17 16 15 14 13 13 12 11 11 12 11 11 11 12 13 14 15 18 18 16 11 9 8 6 5 13 15 17 16 16 17 17
17 15 15 15 17 20 19 18 18 18 18 17 16 15 14 13 12 12 11 11 12 11 10 11 12 13 16 17 19 18 16 13 8 4 5 3 15 15 15 14 16 16 16
15 16 14 14 13 12 11 16 17 17 15 16 15 15 12 11 12 12 10 10 12 10 10 11 12 14 18 18 17 16 16 15 7 6 4 4 11 15 15 15 14 14 14
16 15 15 14 12 10 9 10 15 16 16 15 13 13 10 5 6 7 7 8 11 9 10 10 10 11 15 15 16 16 14 4 6 5 3 14 16 16 14 15 14 13 12
17 15 14 14 13 13 9 8 7 8 5 5 6 7 5 5 5 5 5 7 10 8 6 7 7 9 10 5 5 11 4 5 5 4 4 14 12 12 12 12 12 11 12
18 12 14 15 13 12 9 6 3 3 4 4 6 5 5 4 4 4 2 3 3 4 2 4 5 4 7 5 5 5 5 5 4 4 7 13 12 11 11 12 10 11 11
18 18 14 15 13 10 7 6 5 5 4 4 4 6 5 3 3 3 3 3 3 2 3 2 3 5 6 7 7 6 6 5 3 3 6 12 12 12 12 11 11 11 11
17 15 16 14 13 10 9 5 5 5 4 5 5 6 5 4 4 4 3 3 3 2 3 3 4 4 5 6 5 7 6 6 6 3 3 10 11 11 11 11 11 11 11
16 17 12 12 12 12 7 7 5 4 5 5 4 5 6 5 5 4 4 4 3 3 3 3 3 4 4 4 5 6 6 6 6 5 3 4 10 10 10 10 10 10 10
3 13 14 12 13 9 8 6 5 5 5 5 4 6 7 6 6 5 4 5 3 3 5 4 4 4 4 3 4 5 5 6 5 5 4 3 4 8 9 9 9 9 9
6 9 3 7 9 13 10 7 6 5 5 5 5 4 6 6 6 5 4 4 4 4 4 3 3 4 4 2 2 2 4 4 5 5 4 3 3 3 5 7 8 8 8
16 12 3 6 6 6 7 6 6 6 5 4 5 4 6 6 6 5 4 3 5 4 3 2 3 2 3 2 2 2 2 4 5 4 5 4 3 3 2 4 5 6 6
12 12 11 2 8 7 4 5 4 4 4 4 3 4 6 5 6 5 3 4 4 4 3 3 3 3 3 2 2 2 1 0 2 3 5 3 3 4 3 2 1 1 2
8 11 10 10 12 6 3 2 5 3 3 2 3 5 4 5 5 5 3 3 3 4 3 3 2 3 2 2 3 2 2 1 2 2 2 3 5 4 3 3 2 2 2
11 10 13 11 9 12 4 2 4 3 2 2 2 3 4 5 5 4 5 2 3 4 4 3 3 2 1 2 3 2 1 3 2 2 2 3 5 3 4 5 4 4 3
10 13 12 10 11 9 11 6 3 5 3 3 1 2 2 5 4 4 3 4 4 3 3 2 3 3 2 1 3 3 1 2 2 2 2 1 2 2 3 3 4 5 4
7 9 12 12 11 8 9 8 14 5 3 1 3 0 2 5 4 5 3 3 3 2 3 2 3 2 2 2 1 2 2 3 2 3 2 2 2 3 2 2 3 4 4
8 8 9 12 9 10 11 10 9 9 5 2 2 5 2 3 4 4 4 5 4 2 2 2 2 2 2 2 2 1 1 2 3 2 2 4 3 2 2 3 3 3 3
8 9 9 11 10 7 8 9 11 13 11 8 6 5 4 2 4 4 5 4 4 4 3 2 2 3 3 2 2 2 3 3 2 2 1 2 2 4 3 3 2 2 2
Wind_Direction
158 159 157 156 152 149 147 147 141 138 134 131 127 119 119 106 105 103 97 91 86 86 85 81 81 84 78 75 74 71 68 65 61 57 50 35 51 89 83 81 76 69 67
144 152 155 155 153 150 149 148 144 141 140 132 122 107 100 108 106 104 103 99 95 89 87 86 84 80 78 71 65 64 55 47 48 47 41 20 16 90 86 78 72 65 60
145 150 153 155 154 150 148 145 146 145 133 116 110 125 121 116 110 107 105 102 99 94 90 88 85 84 81 76 70 66 53 49 38 12 54 157 86 75 78 82 88 62 58
143 148 152 156 154 151 147 146 136 125 114 118 130 127 126 122 117 114 110 106 103 102 97 93 90 86 87 83 79 75 75 69 53 57 60 102 73 64 62 72 73 60 48
145 148 154 158 153 141 140 134 128 130 133 130 131 127 126 123 121 117 111 110 109 105 102 100 97 93 87 82 69 58 67 86 78 56 48 66 62 74 77 75 70 69 67
143 148 153 148 141 137 133 136 139 138 135 133 130 129 127 125 119 116 113 111 107 105 103 102 98 96 89 75 62 79 95 91 79 58 46 53 65 83 90 80 76 71 70
142 149 146 142 139 135 140 141 142 138 137 134 133 131 127 124 120 116 114 111 105 100 99 100 100 98 90 74 78 88 86 80 78 61 39 42 75 85 78 74 74 68 62
143 148 144 140 139 137 144 144 142 139 138 137 134 130 127 126 121 117 114 112 107 104 101 100 100 99 86 77 89 89 80 69 71 64 47 35 65 73 77 74 72 63 59
141 144 141 139 141 137 144 144 142 139 139 138 135 130 126 124 120 116 115 111 108 107 106 103 103 93 80 93 93 89 81 71 63 52 57 50 70 74 71 75 71 66 59
141 144 138 134 133 133 140 141 137 134 135 133 128 119 110 107 112 111 106 114 110 109 108 105 97 80 75 99 89 83 75 60 48 41 32 51 66 74 70 72 66 60 54
148 148 137 135 133 126 126 128 126 128 126 128 126 119 109 107 107 104 113 116 110 112 105 95 83 67 63 95 91 81 74 52 53 34 38 79 80 77 76 67 61 51 41
154 144 139 134 137 133 128 119 117 120 117 123 123 121 123 127 126 118 124 107 106 98 89 75 54 57 68 71 81 79 76 64 51 38 38 67 72 70 61 55 51 56 48
149 141 146 140 141 131 133 127 119 116 117 124 140 137 141 125 107 109 103 67 66 67 24 56 55 65 95 102 88 91 89 75 59 43 45 65 64 64 64 64 63 60 60
155 148 148 142 139 133 136 143 144 139 139 147 163 149 134 128 124 134 132 125 109 71 98 83 85 100 97 99 111 98 90 88 78 56 47 66 74 77 77 74 73 70 63
146 150 149 145 142 144 144 144 146 154 152 161 150 160 147 144 145 145 118 101 105 115 118 109 103 101 100 103 106 117 105 100 92 76 52 70 78 77 76 73 69 68 66
140 143 151 146 145 148 145 146 152 146 144 136 149 162 149 142 144 141 123 109 103 111 93 116 117 110 97 106 106 114 124 113 110 104 86 65 77 76 76 73 67 60 56
8 141 146 150 145 140 143 144 142 150 140 129 135 144 143 141 142 139 129 118 115 102 114 103 80 83 86 77 104 115 124 136 128 124 116 95 70 62 69 67 65 61 54
33 5 112 137 149 145 150 146 144 143 138 134 127 129 134 136 139 135 129 129 125 107 103 91 98 84 84 97 127 129 125 136 148 148 139 132 122 85 70 81 66 56 50
147 139 42 85 68 96 122 127 122 128 121 129 125 128 136 129 134 132 133 140 121 105 95 111 62 104 100 60 136 127 142 147 162 153 166 169 178 143 140 104 88 61 46
140 130 134 71 71 46 59 84 58 90 100 115 124 136 137 126 132 123 125 134 117 110 95 77 94 45 103 100 53 75 355 262 178 168 178 163 194 180 172 160 110 337 60
123 134 160 140 132 98 4 137 88 98 82 84 133 140 140 127 131 133 134 122 114 115 128 123 102 88 43 60 73 12 342 328 254 215 186 188 196 193 195 195 207 207 255
144 148 142 157 160 136 176 12 66 89 104 114 146 145 153 139 143 139 135 122 120 112 112 101 96 96 61 47 116 82 7 337 343 256 207 194 220 209 212 211 211 214 215
156 150 151 150 150 156 134 155 85 23 14 71 44 107 143 143 148 132 148 138 141 121 141 124 111 123 143 46 81 133 69 243 334 334 298 206 196 220 247 256 242 229 212
156 154 154 150 147 158 158 185 152 140 166 180 136 29 125 144 148 127 148 133 128 123 126 148 145 132 125 149 63 61 98 137 168 330 333 341 306 232 217 243 262 246 226
156 159 160 151 148 150 165 205 155 145 128 76 112 137 149 127 143 150 147 134 154 155 136 149 137 143 128 146 141 145 67 69 89 128 280 321 350 305 268 244 233 227 236
164 165 166 164 156 150 156 157 148 143 151 159 188 177 178 172 154 172 162 162 160 145 153 179 170 163 172 156 160 166 173 159 197 146 167 290 245 290 278 291 274 250 249